Location: Boissy-l’Aillerie
(49.0786°N, 2.0306°E)
Time: 06:22:19
(UTC+00:00)

Daily predictions for brighter satellites

Satellite Brightness Start Highest point End
(mag) Time Altitude Azimuth Time Altitude Azimuth Time Altitude Azimuth
USA 281 3.5 17:24:00 10° NNE 17:30:34 74° WNW 17:37:07 10° SW
Cosmos 1825 2.1 17:28:07 10° S 17:31:46 65° E 17:35:26 10° NNE
USA 215 3.3 17:26:56 10° ESE 17:33:28 76° NNE 17:40:04 10° NW
Landsat 4 4.4 17:32:12 10° S 17:35:45 57° WSW 17:39:22 10° NNW
Cosmos 540 Rocket 4.0 17:33:45 10° NNW 17:38:51 66° WSW 17:43:55 10° S
Cosmos 2322 4.4 17:35:44 10° S 17:40:51 35° ESE 17:45:58 10° NE
Cosmos 1892 3.4 17:39:20 10° SSW 17:43:01 56° WNW 17:46:45 10° N
ATLAS 2AS CENTAUR R/B 4.4 17:37:28 10° NW 17:43:45 37° WSW 17:49:43 10° S
Radarsat Rocket 4.3 17:37:39 10° SSE 17:43:57 88° ENE 17:51:09 10° NNW
Nadezhda 2 Rocket 4.5 17:38:15 10° N 17:44:27 84° E 17:50:34 10° S
Cosmos 1340 2.5 17:43:16 10° N 17:46:56 65° ENE 17:50:34 10° SSE
Cosmos 1844 Rocket 3.9 17:42:14 10° NW 17:47:34 47° WSW 17:52:52 10° S
Lacrosse 4 Rocket 3.5 17:51:56 10° N 17:53:41 12° NNE 17:55:26 10° NE
Cosmos 1461 4.1 17:50:04 10° WSW 17:54:13 43° NW 17:58:33 10° NNE
NOAA 6 4.4 17:49:32 10° S 17:54:41 71° WSW 17:59:53 10° NNW
CZ-4 R/B 2.6 17:51:54 10° ESE 17:55:03 22° ENE 17:58:11 10° NNE
CZ-4 R/B 4.4 17:52:35 10° SSE 17:56:42 72° ENE 18:00:50 10° N
RESURS DK-1 4.4 17:53:12 10° NW 17:56:54 32° WSW 18:00:34 10° S
SL-08 R/B 3.7 17:53:53 10° N 17:58:50 72° WNW 18:03:44 10° SSW
PAYLOAD B 4.3 17:54:52 10° SE 18:00:12 55° ENE 18:05:35 10° N
Cosmos 841 Rocket 3.8 17:55:44 10° NNW 18:01:00 72° WSW 18:06:12 10° SSE
Cosmos 1814 Rocket 4.1 17:55:58 10° NNW 18:01:18 60° ENE 18:06:34 10° SE
Cosmos 1869 3.5 18:01:31 10° NNW 18:05:27 73° W 18:09:23 10° S
DMSP B5D2-2 4.3 18:03:39 10° NNE 18:08:57 75° WNW 18:14:10 10° SSW
Cosmos 2058 4.2 18:06:40 10° SE 18:09:40 19° E 18:12:09 12° NE
PSLV R/B 3.8 18:06:34 10° SSE 18:10:08 49° ENE 18:13:50 10° N
ATLAS 5 CENTAUR R/B 3.6 18:08:17 10° NNW 18:11:16 17° NNE 18:13:56 12° NE
Cosmos 1386 Rocket 4.4 18:06:18 10° N 18:12:21 75° E 18:18:25 10° SSE
Cosmos 1850 Rocket 4.0 18:08:12 10° SSW 18:13:24 88° WNW 18:18:37 10° NNE
SKYMED 2 3.6 18:09:39 10° NNE 18:14:02 89° SE 18:18:22 10° SSW
Okean O Rocket 2.3 18:10:58 10° SE 18:14:55 33° ENE 18:18:55 10° N
YAOGAN 1 2.6 18:11:01 10° SSE 18:15:14 55° ENE 18:19:28 10° N
Cosmos 2219 Rocket 2.1 18:10:12 10° SSW 18:15:46 75° ESE 18:21:24 10° NNE
CZ-4B R/B 3.3 18:11:21 10° SE 18:16:35 54° ENE 18:21:57 10° N
BlueWalker 3 1.9 18:12:54 10° WNW 18:16:48 87° NNE 18:19:40 18° ESE
Cosmos 1356 3.2 18:16:54 10° N 18:19:53 48° ENE 18:22:51 10° SSE
Cosmos 2360 Rocket 2.9 18:14:22 10° SW 18:19:54 54° NW 18:25:29 10° NNE
Cosmos 1606 2.6 18:17:18 10° N 18:21:07 69° E 18:24:55 10° SSE
Cosmos 2058 Rocket 3.7 18:17:24 10° NNW 18:21:47 61° W 18:26:09 10° S
CZ-4B DEB 4.3 18:16:50 10° SSE 18:22:18 80° WSW 18:27:49 10° NNW
Cosmos-2242 3.4 18:18:37 10° N 18:22:36 38° ENE 18:26:35 10° SE
Cosmos 1745 Rocket 3.9 18:16:43 10° N 18:22:59 82° E 18:29:09 10° S
Lacrosse 5 2.8 18:18:28 10° W 18:23:19 41° NNW 18:27:06 16° NE
Okean 1-7 Rocket 3.6 18:20:09 10° S 18:24:29 55° E 18:28:54 10° NNE
Cosmos 1741 Rocket 4.2 18:19:49 10° SSW 18:25:08 76° WNW 18:30:30 10° NNE
Okean-O 4.1 18:28:32 19° NE 18:28:32 19° NE 18:31:07 10° NNE
Cosmos 1633 4.5 18:27:40 10° SW 18:30:37 29° WNW 18:33:36 10° N
BREEZE-M DEB (TANK) 3.9 18:16:16 10° SW 18:30:49 59° SSE 18:33:28 25° E
SOICAL CYLINDER 4.4 18:28:11 10° SSW 18:30:59 53° ESE 18:31:37 41° ENE
Cosmos 2237 Rocket 3.1 18:27:38 10° SSE 18:32:17 27° ESE 18:33:55 23° ENE
NOSS 8 (A) 4.2 18:28:46 10° SSW 18:32:30 68° SE 18:33:43 33° ENE
MINOTAUR 4 R/B 4.1 18:31:48 17° NNE 18:34:10 45° E 18:37:28 10° S
Cosmos 968 Rocket 3.5 18:30:06 10° S 18:35:13 59° ESE 18:40:25 10° NNE
Cosmos 2278 Rocket 2.2 18:30:05 10° NNW 18:35:44 60° ENE 18:41:02 11° SE
Cosmos 2322 Rocket 3.8 18:31:47 10° WSW 18:36:46 32° NW 18:41:48 10° NNE
SJ-6B 3.6 18:36:32 30° ENE 18:36:47 30° ENE 18:40:21 10° N
Cosmos 1709 Rocket 3.8 18:34:29 10° N 18:40:38 73° E 18:46:44 10° SSE
ATLAS CENTAUR R/B 4.0 18:41:37 10° NNW 18:42:59 11° N 18:44:20 10° N
Cosmos 1980 4.3 18:38:29 10° SSE 18:43:29 34° ESE 18:45:15 28° ENE
Resurs 1-3 4.5 18:44:18 29° ENE 18:44:18 29° ENE 18:47:47 10° N
Cosmos 2208 Rocket 3.9 18:39:34 10° NNW 18:44:45 67° ENE 18:49:57 10° SSE
Cosmos 2369 Rocket 3.9 18:43:03 10° N 18:46:22 16° NNE 18:46:47 16° NE
CSL-04 Rocket 4.1 18:43:56 25° ESE 18:46:23 38° ENE 18:51:23 10° N
Iridium 2 3.4 18:43:19 10° N 18:46:58 87° E 18:50:36 10° S
USA 81 3.9 18:41:43 10° S 18:46:58 79° E 18:52:16 10° N
Cosmos 1943 Rocket 2.9 18:42:14 10° NNW 18:47:21 33° NE 18:48:39 30° ENE
Cosmos 2333 Rocket 3.1 18:43:57 10° SW 18:49:26 49° NW 18:54:59 10° NNE
Cosmos 1570 Rocket 4.0 18:45:28 10° NNW 18:50:52 88° WSW 18:56:12 10° SSE
MOS 1-B 4.5 18:48:19 10° SSE 18:54:07 78° WSW 18:59:58 10° NNW
IGS 5A 3.4 18:52:10 26° SE 18:54:17 58° ENE 18:58:20 10° N
Cosmos 1602 Rocket 3.3 18:50:04 10° S 18:54:22 74° E 18:58:41 10° NNE
Cosmos 1356 Rocket 3.2 18:50:43 10° S 18:54:37 62° E 18:56:49 25° NNE
Cosmos 44 Rocket 4.2 18:50:54 10° WSW 18:55:25 44° NW 18:59:07 15° NNE
SL-16 R/B 4.4 18:52:08 10° W 18:56:18 20° NW 19:00:29 10° N
Cosmos 883 Rocket 4.4 18:53:49 10° S 19:00:08 85° E 19:06:31 10° N
Spot 1 3.8 18:59:32 37° NE 19:00:58 60° ESE 19:05:00 10° S
Cosmos 2074 Rocket 4.3 18:55:08 10° N 19:01:05 42° ENE 19:03:04 33° ESE
COSMO-SKYMED 1 4.4 18:57:57 10° N 19:01:49 32° WNW 19:05:41 10° SW
COSMOS 2428 2.8 18:58:03 10° SSW 19:03:44 80° WNW 19:09:08 12° NNE
Cosmos 2184 Rocket 4.3 18:58:53 10° N 19:04:50 42° ENE 19:06:16 37° ESE
SL-4 R/B 3.6 19:03:36 10° W 19:06:34 25° SW 19:08:15 18° S
Gblst 52 Del rocket 4.1 19:02:39 10° WNW 19:08:13 72° N 19:09:53 45° E
NOSS 0 Rocket 3.9 19:03:14 10° SSW 19:09:24 67° ESE 19:13:26 23° NE
Cosmos 1758 Rocket 3.4 19:05:04 10° S 19:09:25 89° NW 19:13:50 10° N
Cosmos 1812 Rocket 3.8 19:05:04 10° NNW 19:09:31 69° W 19:13:54 10° S
Cosmos 1174 4.5 19:07:04 10° SW 19:12:33 71° NW 19:14:32 33° NNE
Landsat 7 3.7 19:15:20 60° E 19:15:39 62° ENE 19:20:19 10° N
USA 215 4.2 19:10:36 10° SSE 19:16:47 43° SW 19:23:00 10° WNW
Cosmos 2154 Rocket 4.4 19:11:33 10° N 19:17:22 41° ENE 19:17:22 41° ENE
Meteor 2-2 Rocket 4.2 19:20:40 10° NNW 19:26:23 82° W 19:32:08 10° S
CZ-4 R/B 2.7 19:25:54 10° SSW 19:29:44 40° W 19:33:32 10° NNW
Lacrosse 4 Rocket 2.7 19:29:09 10° NNW 19:31:44 31° N 19:31:44 31° N
Resurs 01 Rocket 3.7 19:40:04 17° N 19:40:04 17° N 19:41:10 10° N
Cosmos 2221 4.4 19:34:33 10° N 19:36:00 20° N 19:36:00 20° N
Cosmos 2285 Rocket 3.9 19:34:38 10° NNW 19:40:56 63° ENE 19:41:01 63° ENE
Cosmos 2058 4.0 19:42:11 10° SSW 19:46:10 43° WNW 19:48:30 22° NNW
Okean O Rocket 3.4 19:47:22 10° SSW 19:51:16 30° W 19:55:12 10° NNW
BlueWalker 3 4.1 19:51:58 10° W 19:54:29 22° WSW 19:54:29 22° WSW
ATLAS 5 CENTAUR R/B 3.2 19:52:13 10° NNW 19:55:18 32° N 19:55:18 32° N
Cosmos 2219 Rocket 4.1 19:55:47 10° W 20:00:20 25° NW 20:04:53 10° N
Cosmos 2297 4.5 19:57:47 10° NNW 20:01:47 42° N 20:01:47 42° N
Okean-O 4.2 20:06:03 30° NNW 20:06:03 30° NNW 20:08:27 10° NNW
Lacrosse 5 3.2 20:02:34 10° WNW 20:06:18 32° NNW 20:06:18 32° NNW
Cosmos 2237 Rocket 2.7 20:10:22 10° SW 20:15:51 58° WNW 20:15:51 58° WNW
Cosmos 2278 Rocket 4.1 20:14:49 10° NW 20:19:24 26° WSW 20:22:59 14° SSW
Cosmos 909 Rocket 4.2 20:12:35 10° NW 20:19:28 74° WSW 20:19:28 74° WSW
Cosmos 1943 Rocket 3.1 20:25:52 10° NW 20:30:12 45° WNW 20:30:12 45° WNW
Cosmos 2369 Rocket 3.8 20:26:07 10° NNW 20:28:35 26° NNW 20:28:35 26° NNW
BREEZE-M DEB (TANK) 4.4 20:25:08 10° SW 20:39:13 64° SSW 20:39:13 64° SSW
